Wind_Speed
75 73 75 74 75 80 84 89 87 86 93 101 105 106 110 111 112 115 120 115 102 91 88 87 85 81 80 74 75 79 79 78 74 70 70 74 73 73 74 77 82 91 105
76 78 80 80 82 87 92 95 90 93 98 103 108 112 116 116 117 121 122 118 101 91 89 87 85 80 76 82 82 81 81 78 72 68 65 64 62 63 64 67 74 82 92
78 81 84 84 86 90 95 98 96 101 107 112 114 119 120 122 124 131 127 117 107 98 94 90 86 83 83 80 83 84 79 74 70 64 60 57 56 56 57 62 67 74 80
78 83 89 92 94 97 99 101 102 106 114 119 121 124 126 128 136 137 129 117 108 102 98 92 89 86 85 84 80 74 74 71 64 58 56 54 53 52 54 57 62 65 70
83 88 92 97 99 101 104 106 110 112 119 122 124 129 132 136 142 138 127 115 107 102 98 94 92 90 88 82 75 72 67 64 60 56 52 50 51 51 51 54 58 60 64
89 93 97 102 105 108 111 113 117 120 123 128 131 134 139 139 143 133 123 113 105 102 99 95 93 89 82 76 72 67 62 60 55 52 51 50 50 50 50 52 55 58 60
94 97 100 104 107 110 113 115 123 129 131 132 137 138 143 146 140 128 115 109 104 100 99 97 90 82 76 71 67 63 60 56 53 50 50 51 49 50 50 51 53 55 58
98 100 104 107 111 115 112 122 129 132 133 138 142 145 148 146 136 121 111 106 102 99 95 89 82 75 71 67 62 60 57 53 51 49 48 48 49 50 51 50 52 53 55
103 109 110 112 114 115 128 130 132 135 138 143 146 145 150 141 123 113 107 102 99 93 87 81 74 70 65 61 58 55 53 52 50 47 45 45 46 48 49 49 50 51 51
111 113 115 116 117 127 130 136 142 142 142 146 147 152 150 128 115 107 104 100 92 85 79 73 68 65 60 57 54 51 50 47 44 43 42 43 43 44 46 48 49 49 49
112 117 118 121 131 135 137 140 141 146 148 150 153 156 132 118 109 104 98 91 85 78 71 65 62 59 56 51 49 48 45 43 41 39 40 39 39 41 42 43 44 46 47
117 119 126 134 136 136 142 144 149 150 152 158 152 132 115 107 101 94 86 81 75 69 64 60 57 53 49 47 45 43 41 40 38 36 36 36 37 37 38 38 38 39 41
125 130 135 137 138 146 149 151 154 157 158 150 127 115 106 98 89 83 76 71 67 63 59 54 50 47 44 43 40 38 38 37 35 35 34 33 34 35 36 36 36 35 35
134 136 137 144 150 152 154 157 160 155 143 125 111 105 95 85 79 74 69 64 60 57 53 49 46 43 40 38 36 36 35 35 35 34 33 32 31 31 32 34 35 34 33
134 142 152 151 153 156 158 160 155 137 119 107 98 92 84 76 70 67 63 59 55 51 47 44 42 39 36 35 35 34 34 34 34 34 33 32 31 31 32 31 31 32 32
151 150 153 154 158 161 159 148 131 115 105 96 88 81 74 68 64 60 57 52 48 45 42 41 37 34 33 33 33 33 34 34 34 34 34 34 33 33 32 31 32 32 32
156 154 158 159 161 158 144 126 111 104 94 85 76 70 66 62 58 53 49 45 42 39 39 36 33 32 32 32 32 33 33 33 34 35 35 35 35 34 34 34 34 32 32
157 157 159 159 150 138 124 109 102 94 84 75 68 63 59 53 49 45 42 40 38 36 34 31 30 31 30 31 32 32 33 34 34 34 35 35 35 36 36 35 36 37 37
160 158 151 147 131 116 106 99 93 83 75 68 62 57 50 45 42 39 38 36 35 32 31 29 29 29 29 30 31 32 33 35 35 36 36 36 36 36 36 36 36 37 39
151 148 132 121 111 103 97 91 82 76 69 62 58 51 44 40 37 36 35 34 31 30 29 29 28 28 29 30 31 32 33 34 36 36 37 37 36 36 35 34 34 35 37
137 125 116 105 100 94 87 81 76 70 63 58 53 46 41 37 35 33 32 31 29 28 28 27 27 28 28 29 31 33 34 35 36 36 36 37 35 33 33 33 32 33 34
118 109 101 96 90 83 78 74 69 63 58 54 48 42 38 34 33 31 31 29 27 27 27 27 27 27 27 29 31 33 34 35 36 35 35 36 35 33 33 33 32 33 33
103 98 94 87 80 76 72 66 62 58 53 50 46 40 36 33 33 32 30 29 27 27 26 28 27 27 28 29 31 34 35 36 37 36 36 35 33 33 32 32 32 33 33
95 90 84 77 73 69 65 61 57 52 49 47 43 39 35 33 32 31 30 29 27 27 27 28 27 27 29 31 32 34 34 36 37 37 37 35 34 32 32 32 32 32 32
86 80 75 70 67 64 59 55 50 48 46 45 43 39 35 32 31 31 31 28 27 27 28 28 27 28 30 32 33 33 35 36 37 39 39 38 36 33 32 31 32 32 32
77 73 68 63 62 58 53 50 47 46 44 43 41 38 35 33 32 31 30 28 28 29 29 29 28 30 32 33 34 35 36 38 39 40 41 41 39 37 35 33 33 32 32
Wind_Direction
306 306 308 311 312 314 318 320 328 325 324 321 322 322 323 323 324 325 326 325 323 321 317 315 314 310 306 304 308 307 302 297 293 287 282 278 275 268 261 257 251 245 243
305 307 309 312 316 318 320 320 327 324 320 322 321 322 323 324 325 325 325 324 323 320 316 316 312 309 313 312 307 304 302 297 292 289 286 280 277 270 263 257 251 247 243
306 310 311 314 317 318 319 322 323 320 320 321 321 322 324 323 324 325 325 326 324 323 319 316 314 316 313 310 309 306 299 294 292 290 286 281 278 271 265 259 253 249 246
308 311 313 317 317 318 320 322 320 318 318 319 321 322 323 325 325 325 326 325 323 318 317 315 314 313 312 310 306 300 297 295 292 288 284 281 277 271 265 261 258 252 249
311 312 313 314 316 318 319 319 319 318 318 318 319 322 324 323 326 326 325 322 318 316 315 315 314 313 311 308 304 300 298 295 292 290 286 280 276 272 269 265 262 258 254
310 311 312 313 316 318 318 317 317 317 317 320 323 321 322 324 325 323 321 318 316 314 313 312 312 310 307 305 301 300 298 295 293 291 287 283 278 273 270 267 265 261 257
309 310 311 314 315 317 315 312 313 317 320 320 320 321 321 322 324 321 317 314 313 312 311 309 308 307 306 302 300 299 296 294 293 291 288 285 281 278 274 269 266 264 261
308 310 312 314 315 315 312 312 315 318 318 318 320 320 322 321 319 316 313 311 311 310 308 307 308 306 303 301 300 297 296 297 294 289 286 283 280 277 273 269 267 265 261
310 311 313 313 313 313 314 315 315 316 315 317 318 320 320 317 315 312 311 309 309 308 308 308 306 304 302 300 298 297 297 295 294 291 288 285 280 276 275 272 269 266 263
311 311 309 311 311 313 312 312 314 313 314 314 316 317 317 314 312 311 310 308 307 306 306 305 304 303 302 299 298 299 298 295 292 292 290 284 281 278 274 273 271 270 266
307 308 311 311 311 310 311 312 311 311 312 314 316 315 315 312 311 309 308 306 305 305 304 303 302 302 300 300 300 299 297 296 297 296 292 288 283 280 277 274 272 270 268
308 309 308 308 309 308 308 309 309 311 313 315 316 313 311 310 309 307 305 304 303 302 302 301 301 300 301 300 299 297 298 299 299 299 296 291 287 282 277 277 274 271 268
306 306 305 306 306 306 308 309 311 313 313 313 313 311 309 308 307 305 304 303 302 301 301 300 299 300 299 298 297 298 299 300 301 303 298 293 288 284 282 280 277 273 271
304 305 304 304 306 307 308 310 312 315 314 313 310 308 308 307 305 303 303 303 301 300 299 300 300 298 298 297 296 298 299 301 302 303 300 294 290 280 281 280 275 273 270
302 302 304 305 305 307 309 311 312 312 311 310 309 308 307 305 304 304 303 302 300 299 299 300 298 298 297 296 298 298 299 299 300 300 297 296 293 286 279 277 276 274 273
301 302 303 304 306 309 310 311 311 310 311 310 309 307 306 306 305 303 301 300 299 298 299 297 297 297 296 297 297 297 298 300 298 296 294 293 292 291 290 286 281 277 275
301 302 303 305 308 311 311 310 310 310 310 310 309 307 306 305 303 301 299 298 298 298 296 297 298 296 297 298 299 301 301 300 298 296 295 293 291 289 286 285 283 279 275
300 302 304 306 307 308 308 308 309 309 310 310 309 308 306 303 301 299 297 298 298 297 296 297 295 295 298 299 301 301 301 300 300 299 296 294 291 289 286 282 280 279 278
302 304 304 306 307 306 306 307 309 310 310 310 310 308 304 302 299 298 298 297 297 296 296 295 295 297 299 300 301 302 303 304 303 303 302 300 297 293 287 283 280 277 275
303 303 304 305 305 305 306 308 309 309 309 310 310 307 305 302 299 299 297 296 296 295 294 295 296 298 299 301 301 302 304 306 306 306 306 304 301 298 293 288 283 279 274
302 303 303 304 304 305 307 307 308 308 308 309 308 306 303 300 299 298 296 294 293 291 292 293 295 297 299 302 306 308 310 311 310 310 310 309 306 302 296 292 288 283 278
300 300 302 303 304 306 305 306 306 306 307 306 305 304 301 300 299 296 294 291 288 288 290 289 292 295 299 305 308 311 313 312 313 314 314 313 309 304 301 298 293 289 285
298 300 302 303 304 304 303 304 302 303 304 304 303 301 300 297 294 293 290 288 284 286 285 288 292 297 304 309 312 313 314 316 317 317 317 316 313 309 304 301 299 294 289
298 300 300 302 303 301 301 301 301 300 301 301 299 298 296 292 289 289 285 283 282 283 283 288 293 300 307 310 312 314 315 318 318 318 319 320 317 314 310 306 302 298 293
297 298 300 301 300 298 298 298 297 297 297 295 295 293 291 287 283 282 281 278 279 279 282 288 293 301 306 310 312 315 316 318 321 321 321 321 320 317 313 309 304 301 298
296 298 299 299 295 296 296 296 295 295 293 290 289 288 286 284 281 277 277 274 276 278 283 288 295 301 306 309 314 316 318 319 321 322 322 320 320 318 316 313 309 306 302
Height
10652 10647 10643 10641 10635 10623 10612 10603 10589 10578 10571 10565 10554 10545 10533 10520 10506 10489 10472 10458 10444 10430 10416 10404 10393 10384 10371 10363 10352 10344 10339 10332 10326 10321 10314 10304 10302 10298 10299 10304 10311 10319 10327
10637 10630 10625 10620 10612 10601 10590 10583 10568 10563 10559 10549 10538 10523 10510 10495 10480 10468 10451 10436 10420 10408 10396 10384 10374 10363 10349 10337 10330 10321 10311 10302 10296 10292 10287 10279 10276 10272 10272 10277 10281 10288 10297
10621 10612 10603 10598 10590 10581 10570 10557 10546 10538 10527 10522 10512 10499 10484 10470 10456 10441 10426 10405 10390 10378 10369 10360 10346 10335 10327 10320 10307 10295 10285 10278 10272 10268 10263 10258 10256 10251 10251 10252 10256 10262 10269
10606 10596 10584 10574 10568 10560 10549 10538 10531 10519 10508 10497 10486 10471 10456 10438 10426 10407 10389 10374 10363 10355 10345 10335 10324 10314 10304 10296 10286 10275 10263 10255 10250 10246 10242 10238 10236 10233 10232 10232 10233 10238 10244
10589 10579 10568 10558 10551 10542 10528 10519 10508 10498 10487 10475 10462 10443 10427 10417 10393 10376 10359 10351 10342 10329 10319 10309 10298 10289 10279 10270 10259 10251 10241 10233 10229 10224 10222 10220 10216 10215 10214 10213 10213 10217 10221
10567 10559 10548 10537 10525 10513 10500 10489 10480 10477 10465 10443 10428 10416 10405 10386 10371 10354 10340 10327 10315 10306 10295 10284 10276 10268 10257 10245 10236 10227 10221 10215 10210 10206 10202 10199 10198 10196 10196 10196 10195 10197 10200
10549 10541 10531 10519 10509 10498 10486 10473 10465 10449 10433 10421 10408 10394 10381 10364 10346 10329 10319 10309 10297 10285 10273 10262 10253 10243 10233 10223 10215 10207 10202 10197 10192 10189 10184 10181 10179 10177 10178 10178 10177 10179 10180
10530 10522 10512 10502 10491 10479 10469 10459 10440 10426 10413 10401 10386 10370 10353 10337 10324 10311 10298 10286 10271 10261 10251 10239 10229 10219 10211 10203 10196 10189 10184 10178 10174 10172 10168 10164 10161 10158 10158 10158 10158 10160 10162
10506 10494 10485 10478 10469 10455 10436 10426 10417 10407 10394 10380 10364 10352 10336 10318 10304 10287 10273 10260 10247 10236 10226 10216 10207 10199 10192 10185 10179 10173 10167 10162 10157 10154 10152 10149 10145 10143 10140 10140 10141 10143 10145
10475 10465 10460 10451 10441 10433 10420 10408 10397 10383 10374 10362 10348 10328 10310 10291 10276 10261 10247 10234 10223 10215 10206 10197 10188 10181 10174 10168 10162 10156 10151 10147 10143 10139 10136 10133 10131 10128 10126 10124 10124 10125 10127
10457 10446 10435 10427 10418 10408 10397 10385 10374 10366 10352 10335 10319 10301 10279 10262 10248 10235 10221 10209 10199 10194 10187 10179 10171 10165 10159 10152 10146 10141 10138 10133 10128 10125 10121 10119 10116 10113 10111 10110 10110 10110 10109
10432 10423 10416 10406 10397 10387 10378 10365 10352 10337 10320 10302 10284 10268 10253 10239 10224 10212 10200 10189 10180 10174 10168 10162 10155 10149 10144 10138 10133 10129 10123 10119 10115 10113 10109 10106 10103 10101 10099 10097 10097 10097 10096
10415 10408 10398 10387 10375 10364 10351 10336 10321 10305 10291 10275 10256 10239 10226 10214 10201 10189 10180 10170 10162 10156 10150 10146 10141 10136 10131 10126 10122 10118 10112 10107 10104 10101 10098 10095 10093 10090 10087 10085 10084 10084 10085
10392 10384 10371 10362 10348 10334 10320 10306 10292 10276 10258 10243 10229 10214 10201 10190 10179 10168 10161 10154 10146 10140 10135 10130 10126 10123 10119 10114 10111 10107 10102 10097 10093 10091 10088 10085 10082 10080 10078 10076 10075 10073 10073
10367 10358 10346 10336 10321 10308 10293 10275 10262 10246 10232 10219 10205 10189 10178 10168 10159 10150 10143 10137 10131 10125 10121 10117 10114 10110 10107 10104 10100 10095 10092 10088 10085 10082 10079 10076 10073 10071 10068 10067 10065 10063 10061
10344 10332 10320 10308 10292 10278 10262 10246 10232 10217 10206 10194 10180 10167 10156 10148 10140 10134 10127 10122 10117 10112 10109 10106 10102 10099 10096 10093 10089 10085 10081 10078 10076 10074 10070 10067 10065 10061 10058 10057 10056 10053 10051
10317 10302 10290 10278 10263 10248 10231 10218 10205 10193 10183 10172 10159 10148 10139 10132 10125 10119 10114 10109 10105 10101 10098 10095 10091 10089 10086 10082 10079 10076 10072 10069 10066 10063 10060 10057 10054 10052 10050 10048 10045 10044 10042
10292 10278 10264 10249 10238 10223 10209 10197 10185 10173 10161 10151 10141 10132 10124 10117 10111 10106 10101 10097 10094 10092 10088 10085 10083 10080 10077 10074 10071 10068 10064 10061 10057 10054 10050 10047 10043 10040 10037 10036 10034 10031 10030
10262 10250 10238 10226 10214 10200 10186 10176 10164 10152 10142 10133 10125 10117 10110 10104 10099 10094 10090 10087 10084 10081 10079 10077 10075 10071 10069 10066 10063 10059 10056 10051 10047 10043 10039 10035 10031 10028 10025 10023 10021 10020 10019
10239 10224 10212 10201 10189 10177 10165 10153 10144 10133 10124 10116 10109 10103 10097 10093 10088 10085 10081 10078 10075 10073 10071 10069 10066 10064 10062 10058 10055 10051 10046 10041 10037 10033 10029 10024 10020 10016 10013 10010 10009 10008 10006
10212 10199 10189 10178 10166 10155 10145 10133 10124 10117 10109 10102 10096 10091 10087 10083 10079 10076 10073 10070 10068 10066 10064 10062 10060 10057 10054 10051 10046 10041 10037 10033 10028 10023 10018 10013 10008 10005 10001 9999 9997 9995 9993
10184 10175 10166 10156 10145 10135 10125 10117 10108 10101 10095 10089 10085 10081 10076 10073 10070 10067 10065 10063 10061 10059 10057 10056 10054 10051 10047 10044 10039 10034 10030 10025 10021 10016 10010 10004 9999 9995 9990 9987 9985 9982 9980
10163 10153 10143 10134 10125 10116 10107 10102 10094 10087 10081 10076 10073 10070 10066 10063 10061 10059 10058 10056 10054 10053 10051 10049 10046 10043 10040 10036 10032 10027 10022 10017 10012 10007 10002 9996 9991 9986 9981 9978 9975 9972 9969
10139 10129 10121 10113 10106 10099 10092 10086 10080 10074 10069 10064 10062 10059 10057 10054 10052 10051 10050 10049 10046 10046 10045 10042 10039 10036 10032 10029 10025 10020 10015 10011 10005 10000 9994 9989 9984 9979 9974 9969 9965 9961 9958
10115 10107 10101 10095 10088 10082 10076 10071 10066 10061 10057 10054 10051 10048 10047 10046 10044 10043 10042 10040 10039 10038 10037 10035 10032 10029 10026 10022 10019 10014 10008 10003 9997 9991 9985 9980 9975 9970 9966 9961 9956 9952 9948
10094 10088 10083 10078 10070 10065 10061 10056 10052 10048 10045 10042 10039 10037 10036 10036 10035 10034 10033 10032 10031 10031 10029 10027 10025 10021 10018 10015 10011 10006 10000 9995 9990 9984 9978 9971 9965 9961 9956 9951 9947 9943 9939